Weather History for Fort Leonard Wood, MO

Change the Weather History Date:

Thursday, November 29, 2012

  Actual Average Record
Temperature  
Mean Temperature 47 °F -  
Max Temperature 62 °F 50 °F 73 °F (2006)
Min Temperature 32 °F 36 °F 23 °F (2003)
Degree Days  
Heating Degree Days 18    
Moisture  
Dew Point 31 °F    
Average Humidity 60    
Maximum Humidity 94    
Minimum Humidity 28    
Precipitation  
Precipitation 0.00 in - - ()
Sea Level Pressure  
Sea Level Pressure 30.17 in    
Wind  
Wind Speed 9 mph (SSE)    
Max Wind Speed 13 mph    
Max Gust Speed 17 mph    
Visibility 10 miles    
Events      
Averages and records for this station are not official NWS values.
T = Trace of Precipitation, MM = Missing Value Source: NWS Daily Summary

Daily Weather History Graph

Daily Weather History Graph

Search for Another Location

Airport:

Trip Planner

Search our weather history database for the weather conditions in past years. The results will help you decide how hot, cold, wet, or windy it might be!

Date:

Astronomy

Nov. 29, 2012 Rise Set
Actual Time 7:03 AM CST 4:50 PM CST
Civil Twilight 6:34 AM CST 5:19 PM CST
Nautical Twilight 6:02 AM CST 5:51 PM CST
Astronomical Twilight 5:30 AM CST 6:23 PM CST
Moon 5:53 PM CST (11/29) 7:50 AM CST (11/29)
Length of Visible Light 10h 44m
Length of Day
9h 46m
Full, 99% of the Moon is Illuminated
Nov 29
Full
Dec 6
Last Quarter
Dec 13
New
Dec 19
First Quarter
Dec 28
Full

Hourly Weather History & Observations

Time (CST) Temp. Windchill Dew Point Humidity Pressure Visibility Wind Dir Wind Speed Gust Speed Precip Events Conditions
12:55 AM 33.8 °F 26.4 °F 28.9 °F 82% 30.25 in 10.0 mi SE 9.2 mph - N/A   Clear
1:55 AM 32.0 °F 25.6 °F 28.9 °F 88% 30.25 in 10.0 mi SE 6.9 mph - N/A   Clear
2:55 AM 32.7 °F 25.7 °F 29.8 °F 89% 30.25 in 10.0 mi SE 8.1 mph - N/A   Clear
3:55 AM 32.9 °F 25.9 °F 30.0 °F 89% 30.25 in 10.0 mi SSE 8.1 mph - N/A   Clear
4:55 AM 32.2 °F 25.8 °F 30.2 °F 92% 30.25 in 10.0 mi SE 6.9 mph - N/A   Clear
5:55 AM 32.0 °F 23.6 °F 30.6 °F 94% 30.25 in 10.0 mi SE 10.4 mph - N/A   Clear
6:55 AM 32.2 °F 24.4 °F 30.7 °F 94% 30.25 in 10.0 mi SE 9.2 mph - N/A   Clear
7:55 AM 36.0 °F 28.5 °F 32.0 °F 86% 30.24 in 10.0 mi SSE 10.4 mph - N/A   Clear
8:55 AM 41.2 °F 35.0 °F 33.3 °F 73% 30.23 in 10.0 mi SSE 10.4 mph - N/A   Clear
9:55 AM 46.9 °F - 34.0 °F 61% 30.21 in 10.0 mi SSE 11.5 mph - N/A   Clear
10:55 AM 55.6 °F - 32.5 °F 42% 30.19 in 10.0 mi South 10.4 mph 17.3 mph N/A   Clear
11:55 AM 58.5 °F - 32.2 °F 37% 30.16 in 10.0 mi Variable 5.8 mph - N/A   Clear
12:55 PM 59.7 °F - 33.6 °F 37% 30.13 in 10.0 mi South 9.2 mph 17.3 mph N/A   Clear
1:55 PM 61.9 °F - 33.3 °F 34% 30.11 in 10.0 mi South 12.7 mph 17.3 mph N/A   Clear
2:55 PM 62.4 °F - 28.6 °F 28% 30.10 in 10.0 mi South 8.1 mph 17.3 mph N/A   Clear
3:55 PM 59.4 °F - 29.7 °F 32% 30.11 in 10.0 mi South 9.2 mph - N/A   Clear
4:55 PM 55.8 °F - 30.7 °F 39% 30.10 in 10.0 mi SSE 10.4 mph - N/A   Clear
5:55 PM 52.9 °F - 30.6 °F 43% 30.10 in 10.0 mi SSE 8.1 mph - N/A   Clear
6:55 PM 51.3 °F - 31.1 °F 46% 30.10 in 10.0 mi SSE 11.5 mph - N/A   Clear
7:55 PM 52.0 °F - 30.9 °F 45% 30.10 in 10.0 mi South 12.7 mph - N/A   Clear
8:55 PM 51.1 °F - 31.1 °F 46% 30.09 in 10.0 mi South 10.4 mph - N/A   Clear
9:55 PM 49.3 °F - 31.1 °F 50% 30.10 in 10.0 mi South 9.2 mph - N/A   Clear
10:55 PM 47.8 °F - 30.6 °F 51% 30.10 in 10.0 mi South 6.9 mph - N/A   Clear
11:55 PM 47.1 °F - 31.3 °F 54% 30.11 in 10.0 mi South 6.9 mph - N/A   Clear